Theta_e
342 345 342 341 339 339 336 335 335 335 334 332 331 331 332 332 334 334 335 343 342 341 341 341 341 340 346 348 350 349 347 346 344 342 342 341 340 340 340 340 340 341 343
345 342 343 340 340 342 337 336 334 334 332 332 333 332 332 332 334 333 335 337 340 341 341 340 341 341 345 349 349 348 347 346 345 343 341 339 338 339 340 341 340 342 340
345 344 341 340 341 340 339 337 336 335 334 332 332 331 334 332 333 333 335 333 338 342 341 340 341 340 345 349 348 348 347 346 345 342 341 341 340 339 340 340 341 340 338
345 344 339 338 341 340 337 337 335 333 332 332 331 331 332 333 333 335 333 332 334 334 338 341 342 342 345 349 348 348 347 345 343 342 341 339 339 340 340 340 340 338 337
344 342 339 341 340 338 336 335 334 333 330 329 330 331 332 332 332 333 333 334 333 332 334 338 341 341 346 348 348 348 347 344 342 341 340 339 340 339 339 340 340 338 336
342 341 341 339 339 336 334 334 331 333 330 330 330 330 331 331 332 331 332 333 332 330 332 336 335 337 346 348 347 347 347 343 342 340 340 339 339 339 339 338 338 337 336
341 340 340 338 337 334 333 333 331 329 328 330 326 326 327 329 330 330 331 329 330 331 331 336 336 337 341 345 344 346 346 345 342 340 339 338 338 338 338 336 336 336 334
342 339 338 336 336 334 333 332 331 328 328 329 323 322 317 322 325 325 329 330 330 333 333 335 337 337 340 341 340 343 345 344 342 340 338 338 338 338 337 336 334 333 331
340 338 336 335 335 336 333 332 332 329 324 327 327 322 316 313 318 325 326 328 329 329 332 334 338 338 341 343 341 342 343 343 342 341 338 338 337 336 336 335 332 331 330
338 337 336 336 336 334 334 333 333 330 328 323 326 328 327 323 316 314 324 326 328 330 331 333 335 336 339 340 343 341 339 340 341 340 339 338 337 336 334 332 331 330 329
338 337 336 337 335 336 333 332 331 330 331 328 326 326 324 324 324 318 314 320 326 329 330 333 331 325 328 333 338 337 336 336 336 337 338 337 337 334 333 328 327 330 329
338 335 336 336 337 334 333 332 333 332 329 330 329 328 324 321 320 319 316 318 321 325 329 332 333 330 329 329 336 336 334 332 331 332 332 333 332 330 327 326 330 330 329
335 336 336 336 337 335 334 334 333 330 330 329 329 327 328 327 326 324 321 319 320 325 326 331 333 335 327 332 333 335 333 329 327 326 327 328 329 329 327 331 330 330 329
338 339 338 337 337 335 334 333 332 331 332 330 329 329 328 328 328 324 322 321 319 321 323 325 331 332 333 334 331 333 329 325 323 321 321 322 323 326 329 329 330 330 330
339 337 338 336 336 333 334 333 332 331 331 331 330 328 327 329 331 329 328 326 321 317 318 325 326 330 332 332 332 329 327 323 322 319 318 319 321 324 325 326 326 326 327
338 336 337 336 334 333 334 334 334 334 331 332 328 326 326 327 329 332 329 328 326 322 320 326 326 329 328 329 330 327 326 324 321 320 320 319 320 321 322 323 323 323 323
337 335 334 333 331 330 333 332 333 331 329 327 327 325 323 324 327 329 330 328 327 326 319 322 325 327 325 324 325 325 325 323 322 321 321 319 318 318 319 320 321 321 321
335 335 334 332 331 331 331 331 330 330 329 325 325 325 325 329 327 329 328 327 326 326 321 317 323 323 322 323 323 324 324 325 324 320 318 317 317 316 317 317 317 315 314
334 332 332 332 332 331 330 332 331 330 330 327 327 326 327 328 327 328 328 326 326 324 322 320 319 322 322 323 321 323 322 321 322 319 315 315 314 314 313 312 310 309 307
334 331 332 333 333 331 332 332 331 331 331 330 330 331 330 328 327 326 326 326 324 322 321 320 319 319 319 320 319 317 315 317 317 318 315 313 312 311 310 308 308 307 304
334 332 331 333 331 329 329 330 331 330 331 331 331 330 326 323 320 324 329 325 323 321 320 318 317 317 316 316 314 315 314 314 315 314 310 309 308 307 307 307 307 305 302
333 333 332 331 330 326 308 312 324 329 330 329 328 330 327 324 316 313 317 318 322 321 319 318 317 316 316 315 315 314 313 312 310 317 313 311 311 307 306 304 304 302 301
333 331 329 329 326 324 306 309 313 329 327 328 327 330 328 327 326 322 311 312 311 310 316 321 318 318 317 317 317 314 313 312 312 316 316 312 309 302 301 300 301 300 299
331 332 331 329 325 319 307 308 312 330 329 330 330 330 327 328 325 327 326 323 322 322 322 323 321 320 320 319 319 317 316 315 316 318 319 307 307 302 300 297 299 298 298
329 331 330 327 324 321 306 305 319 328 327 326 324 326 325 322 304 308 321 319 319 319 310 309 308 305 303 305 315 320 320 317 314 314 317 311 308 304 301 296 296 298 297
329 330 329 328 317 323 302 303 319 325 322 323 322 319 306 314 302 306 321 320 318 319 319 317 314 309 310 310 308 322 321 315 313 312 317 315 309 307 301 300 296 294 294
Wind_Speed
5 4 5 3 3 4 4 5 3 3 6 7 4 3 5 6 5 2 2 15 15 13 13 13 11 11 10 12 13 18 19 20 21 19 19 22 18 14 12 9 8 11 16
4 3 2 5 3 3 4 4 3 3 2 3 2 4 1 5 4 4 3 6 14 13 15 15 13 12 12 14 16 21 22 21 21 22 21 20 20 17 14 15 13 14 17
5 4 3 2 4 1 3 3 4 4 4 4 4 4 2 3 5 4 4 3 7 15 16 16 15 14 14 15 19 23 22 22 22 22 20 18 17 15 17 16 16 18 17
5 3 3 4 1 3 3 4 4 4 3 3 3 3 3 4 5 5 4 5 5 6 12 18 17 16 15 17 20 24 23 23 23 22 20 19 18 17 17 18 18 18 18
7 4 5 2 2 2 3 4 4 4 3 4 4 4 4 4 5 6 7 8 5 5 6 17 17 17 15 16 21 24 27 25 23 22 20 19 18 18 15 18 19 18 18
6 5 4 3 4 3 3 4 5 4 4 4 3 3 4 4 5 5 6 5 6 6 5 7 9 9 15 16 20 25 29 27 24 23 21 18 18 17 17 18 18 18 19
2 4 3 3 4 3 5 5 5 5 4 4 2 3 3 5 6 5 4 6 6 6 7 7 6 5 8 17 21 25 28 29 27 24 21 19 16 19 19 18 16 17 17
5 4 4 3 4 4 5 5 5 2 3 4 3 2 3 3 5 6 4 3 5 3 5 5 8 6 6 8 14 24 28 29 27 25 22 19 19 20 20 19 18 17 20
5 5 4 4 4 3 3 4 4 6 3 4 7 4 3 4 4 4 4 0 7 4 5 4 4 6 6 8 15 20 26 26 27 26 24 22 24 22 21 19 17 17 16
5 4 4 4 4 3 4 4 5 4 4 5 5 7 7 3 4 2 2 5 6 5 3 1 4 3 6 8 18 20 24 24 24 26 26 27 25 24 22 20 17 15 15
2 5 5 4 4 4 4 4 5 5 4 3 4 4 6 7 4 3 3 3 2 3 2 2 6 3 5 4 9 16 22 20 23 24 26 27 25 24 22 21 17 16 14
3 4 4 4 4 3 4 5 5 5 5 4 4 4 5 4 5 2 2 5 5 2 2 4 5 4 5 4 7 18 20 19 19 22 23 25 23 22 20 17 15 15 13
2 3 4 5 3 4 5 5 3 4 5 5 5 5 2 1 2 2 2 5 4 1 3 5 5 4 5 4 3 21 24 26 24 20 19 21 23 21 18 15 13 13 12
2 5 4 4 5 5 4 5 2 2 3 3 3 3 2 2 3 2 2 5 4 2 2 5 4 6 7 7 4 18 17 25 25 25 23 21 20 14 13 12 10 9 9
1 4 4 4 4 6 7 5 3 1 1 3 4 4 3 3 4 7 5 5 4 5 3 4 4 7 6 8 13 12 16 28 27 24 23 17 10 10 12 10 9 9 10
4 5 4 4 5 3 7 5 1 3 4 3 3 2 2 2 4 3 4 4 2 3 5 3 5 8 8 8 15 14 16 22 26 23 20 15 12 12 11 10 10 9 8
3 6 5 4 4 5 6 5 4 3 7 5 3 3 3 3 2 1 6 5 5 5 8 3 3 9 11 13 13 15 14 13 14 21 14 14 13 10 10 10 10 8 8
4 5 6 4 4 4 5 4 3 5 7 6 4 3 4 3 5 4 5 6 7 6 7 8 3 6 12 13 15 16 11 10 11 14 15 14 11 9 10 9 9 10 10
2 5 4 6 5 4 4 3 4 5 4 6 5 5 5 4 5 5 4 5 6 7 8 7 6 7 8 12 12 13 12 12 9 19 15 13 11 10 10 11 12 11 11
3 6 5 6 5 4 4 4 5 4 5 3 3 3 5 5 5 6 4 6 7 8 8 9 10 9 10 11 12 13 12 9 9 8 12 10 11 13 12 13 13 13 13
5 6 6 4 5 8 5 5 5 6 5 6 5 9 7 8 7 2 7 8 11 9 9 10 10 11 12 11 11 9 12 9 6 3 4 4 5 6 6 10 12 14 13
5 6 5 5 10 7 11 12 5 5 6 5 4 5 6 7 11 11 14 10 11 13 12 9 9 12 9 10 10 10 12 10 6 2 4 5 6 5 5 4 10 10 11
6 6 4 7 10 6 10 9 9 5 5 4 2 4 6 6 9 9 14 16 14 13 11 12 14 11 15 13 11 10 10 6 5 7 5 6 7 6 4 6 8 9 10
6 5 5 9 10 5 7 6 3 6 6 4 5 6 8 7 7 9 11 12 11 11 11 9 12 12 12 12 11 12 12 7 6 7 6 5 4 4 5 4 7 8 9
6 4 6 9 9 5 5 5 4 7 7 9 7 7 7 6 8 12 11 12 11 9 10 16 15 15 13 12 11 10 6 9 7 5 5 4 4 5 4 4 4 8 8
4 6 7 7 10 6 7 7 6 6 7 6 6 7 11 7 9 11 11 12 12 12 14 14 11 10 9 8 11 4 8 8 7 3 5 4 7 5 4 4 5 5 4
Wind_Direction
210 214 200 174 200 198 205 222 239 188 229 227 257 224 222 236 256 2 352 160 178 187 188 198 206 213 221 202 187 175 165 162 163 162 165 151 149 154 151 150 184 170 122
206 237 208 196 198 200 242 263 228 229 263 282 270 270 249 256 229 211 225 184 195 192 198 198 204 211 219 197 182 172 169 169 168 163 161 161 165 162 146 144 151 141 121
192 238 268 230 192 223 280 254 246 248 218 254 244 270 284 247 266 228 234 204 199 202 201 199 202 209 219 195 186 178 174 167 164 162 163 158 156 153 144 161 158 131 122
199 222 256 236 267 172 232 242 228 228 253 237 236 253 258 252 243 244 219 239 185 203 207 206 202 203 212 198 191 180 173 165 163 161 155 156 156 156 163 164 142 135 128
196 182 226 242 253 239 241 240 239 212 213 238 237 229 239 232 243 230 225 217 229 231 178 208 202 201 204 202 194 183 170 162 159 159 156 154 160 159 166 152 139 138 136
198 184 223 215 203 226 247 227 221 218 205 211 227 224 222 230 225 245 233 218 228 239 245 188 188 201 200 193 191 178 169 162 159 159 154 157 164 164 149 143 143 144 142
116 181 222 209 232 220 229 220 227 222 210 197 193 230 244 238 237 243 275 235 210 220 231 168 169 193 193 186 184 182 174 163 164 162 157 158 163 144 138 141 141 137 123
167 213 225 234 240 211 213 221 209 193 209 182 176 182 211 231 245 246 233 243 240 233 222 205 174 202 178 178 179 178 171 166 165 165 162 158 144 143 142 137 142 130 114
188 198 213 208 217 203 223 223 201 198 201 195 205 191 178 219 156 204 147 276 250 254 278 129 183 204 175 172 171 173 168 168 168 167 164 148 145 144 137 141 139 129 136
179 176 211 209 211 201 197 217 201 197 194 211 180 237 261 315 166 184 163 193 216 221 279 217 216 153 166 167 167 166 171 168 169 163 151 145 148 144 142 141 131 139 151
219 221 187 209 178 217 237 212 219 173 197 205 212 218 233 223 250 150 159 154 223 214 208 145 113 135 87 103 171 165 159 161 160 156 151 150 143 142 144 133 148 156 155
214 220 234 195 214 216 216 216 149 203 213 220 242 275 287 94 253 41 152 159 142 44 82 64 115 157 155 147 185 141 148 149 137 144 144 137 135 130 133 140 164 153 157
218 197 220 182 180 198 236 122 158 197 198 198 203 245 329 17 82 82 26 164 137 81 85 42 49 59 127 72 226 147 140 132 134 135 130 129 127 130 152 167 156 155 153
225 157 177 173 199 207 199 121 214 206 194 214 199 289 307 260 149 83 198 151 111 128 142 122 46 67 85 142 223 135 131 123 119 111 108 115 125 152 157 139 148 154 169
124 160 158 181 175 226 125 142 177 139 142 107 74 32 2 358 7 192 189 162 171 152 113 146 104 92 98 128 139 118 122 116 108 109 115 123 134 140 130 135 129 121 113
165 130 153 165 190 218 138 139 167 181 130 107 86 26 339 351 319 329 194 127 114 133 100 63 67 113 115 114 120 119 117 116 118 122 133 144 139 126 125 137 124 116 124
150 141 154 174 181 189 133 139 207 192 109 107 196 198 249 250 301 130 66 66 60 57 109 81 66 120 119 119 122 122 121 124 123 131 138 124 118 136 131 120 119 129 117
148 159 144 141 137 136 140 151 212 121 127 156 191 173 191 110 70 80 84 81 76 74 115 114 121 131 130 127 126 119 119 111 117 111 108 114 117 113 114 111 104 108 113
120 133 137 129 115 149 125 110 113 106 146 144 153 183 142 115 108 92 84 86 92 103 115 122 117 118 120 131 121 113 112 104 103 98 89 88 92 94 100 108 111 114 114
114 134 146 135 155 147 153 141 116 131 108 110 164 120 113 137 122 131 120 110 116 118 122 118 118 117 112 106 99 110 102 91 94 84 74 90 95 94 99 103 113 117 113
87 105 111 136 104 71 66 56 119 93 85 60 63 72 56 63 62 124 138 125 131 125 119 117 113 116 110 115 114 110 103 107 91 89 103 99 107 100 100 100 118 123 119
121 101 87 93 73 75 61 46 62 83 84 77 70 105 120 107 61 76 104 115 137 140 132 121 120 119 109 113 122 123 125 134 128 218 131 151 135 127 116 81 123 126 116
95 103 113 91 89 81 68 60 38 78 115 113 146 99 104 98 90 94 89 93 84 83 103 129 124 128 123 136 132 133 138 133 141 166 164 144 118 100 103 109 118 118 122
110 107 116 98 96 81 55 52 41 86 92 88 77 73 79 88 101 118 113 111 102 105 110 115 116 123 128 141 146 145 151 148 139 164 155 113 153 117 115 103 130 148 146
131 132 103 105 115 115 54 21 104 90 80 68 60 76 93 92 99 106 112 114 108 101 87 100 106 113 123 120 134 149 168 140 138 148 177 114 157 113 139 155 175 183 183
145 131 114 115 117 118 53 32 81 119 106 94 83 74 70 105 115 123 118 125 125 128 124 119 111 109 125 144 167 189 146 147 149 147 215 134 138 143 177 172 164 166 197